Regional Weather Roundup
Issued by NWS Northern Indiana

Home | Current Version | Previous Version | Text Only | Print | Product List | Glossary Off
Versions: 1 2 3 4 5 6 7 8 9 10 11 12 13 14 15 16 17 18 19 20 21 22 23 24 25 26 27 28 29 30 31 32 33 34 35 36 37 38 39 40 41 42 43 44 45 46 47 48 49 50

000
ASUS43 KIWX 081710
RWRIWX

KIWX WEATHER ROUNDUP
NATIONAL WEATHER SERVICE NORTHERN INDIANA
1200 PM EST THU DEC 08 2016

NOTE: "FAIR" INDICATES FEW OR NO CLOUDS BELOW 12,000 FEET WITH NO
SIGNIFICANT WEATHER AND/OR OBSTRUCTIONS TO VISIBILITY.

* THESE STATIONS ARE NOT UNDER NWS QUALITY CONTROL. THEY ALSO MAY NOT
  REPORT WEATHER SUCH AS PRECIPITATION OR FOG.

INZ001>027-081800-
NORTHERN INDIANA

CITY           SKY/WX    TMP DP  RH WIND       PRES   REMARKS
GARY*          CLOUDY    21  12  68 W17G29    30.30R WCI   7
VALPARAISO     CLOUDY    20  12  71 W20       30.27S WCI   4
MICHIGAN CITY* LGT SNOW  21  16  79 SW14G20   30.26S WCI   8
LAPORTE*       LGT SNOW  19  12  74 W14G24    30.25F WCI   6
KNOX*          CLOUDY    21  -4  33 W21G29    30.27S WCI   6
SOUTH BEND     LGT SNOW  20  15  81 W20       30.23S WCI   4
ELKHART*       FLURRIES  21  16  79 W16G23    30.21R WCI   7
GOSHEN         CLOUDY    21  12  68 W23G31    30.21S WCI   5
MONTICELLO*    CLOUDY    21   9  60 W16G28    30.31S WCI   7
LOGANSPORT*    FLURRIES  23  14  68 W20G30    30.30S WCI   8
ROCHESTER*     FLURRIES  25  18  74 W16G26    30.26S WCI  12
WARSAW*        FLURRIES  21  10  63 W22G28    30.23S WCI   5
ANGOLA*        CLOUDY    21  18  86 W14       30.15S WCI   8
FORT WAYNE     FLURRIES  23  14  68 W25G32    30.23S WCI   7
HUNTINGTON*    CLOUDY    24  13  64 W17G26    30.24F WCI  10
PERU/GRISSOM   FLURRIES  22  14  69 W23       30.26S WCI   6
MARION*        FLURRIES  22  15  74 W21G28    30.28S WCI   7

$$
INZ028>050-081800-
CENTRAL INDIANA

CITY           SKY/WX    TMP DP  RH WIND       PRES   REMARKS
LAFAYETTE      FLURRIES  21  13  71 W24G32    30.33S WCI   4
KOKOMO*        FLURRIES  22  14  71 W29       30.28S WCI   4
MUNCIE*        CLOUDY    23  13  65 W18G28    30.27S WCI   9
INDIANAPOLIS   FLURRIES  22  13  68 W22       30.34S WCI   6

$$
MIZ043>046-050>051-056>058-064>065-071>073-077>080-081800-
SOUTHWEST LOWER MICHIGAN

CITY           SKY/WX    TMP DP  RH WIND       PRES   REMARKS
BATTLE CREEK   LGT SNOW  25  20  81 W12       30.12S WCI  14
BENTON HARBOR  CLOUDY    24  17  74 W21G31    30.20S WCI   9
COLDWATER*     LGT SNOW  24  19  84 W17       30.14S WCI  10
HILLSDALE*     LGT SNOW  23  18  80 W15G24    30.10S WCI  10
HOLLAND        FLURRIES  26  18  71 W17G25    30.14R WCI  13
GRAND RAPIDS   LGT SNOW  25  20  81 W13       30.11R WCI  14
KALAMAZOO      LGT SNOW  24  18  77 W16G24    30.14S WCI  11
STURGIS*       LGT SNOW  21  17  82 W15G24    30.16S WCI   8
THREE RIVERS*  FLURRIES  24  18  77 W20G28    30.17S WCI   9

$$
OHZ001>008-015>018-024>025-081800-
NORTHWEST OHIO

CITY           SKY/WX    TMP DP  RH WIND       PRES   REMARKS
WAUSEON*       CLOUDY    25  18  74 W21G26    30.15S WCI  10
DEFIANCE       CLOUDY    26  14  60 W10G23    30.19S WCI  16
FINDLAY        CLOUDY    25  13  60 W23G31    30.18F WCI  10
TOLEDO EXPRESS FLURRIES  24  18  77 W25G31    30.15S WCI   8
TOLEDO METCALF LGT SNOW  27  18  69 W24G31    30.16S WCI  12
LIMA           LGT SNOW  22  17  81 W17       30.21S WCI   8

$$
AND FOR LAKE MICHIGAN COASTAL AND OPEN LAKE BUOY OBSERVATIONS

STATION/POSITION TEMP    WIND        PRES    VSBY  WAVE
                 AIR SEA DIR/SP/G                  HT/PER
                 (F)     (DEG/KT/KT) (MB)    (MI)  (FT/S)
CALUMET HARBOR    19     240/ 15/ 21 1024.5R
MICHIGAN CITY     21     230/ 28/ 32   N/A
BURNS HARBOR      21     260/ 24/ 30 1025.4R
SAINT JOSEPH      26     260/ 24/ 28 1022.7

$$
&&



USA.gov is the U.S. government's official web portal to all federal, state and local government web resources and services.